Goodland, KS

10:46 PM MST on November 24, 2017 (GMT -0700)
Renner-Goodland Municipal

Weather History for KGLD - August, 2014

Change the Weather History Date:

Tuesday, August 26, 2014

  Actual Average Record
Temperature  
Mean Temperature 72 °F 72 °F  
Max Temperature 85 °F 86 °F 106 °F (1926)
Min Temperature 59 °F 58 °F 42 °F (1906)
Degree Days  
Heating Degree Days 0 0  
Month to date heating degree days 0 0  
Since 1 June heating degree days 51 41  
Since 1 July heating degree days 13 4  
Cooling Degree Days 7 8  
Month to date cooling degree days 279 243  
Year to date cooling degree days 777 797  
Since 1 June cooling degree days 731 756  
Growing Degree Days 22 (Base 50)    
Moisture  
Dew Point 61 °F    
Average Humidity 72    
Maximum Humidity 100    
Minimum Humidity 44    
Precipitation  
Precipitation 0.71 in 0.07 in 1.22 in (1933)
Month to date precipitation 2.66 2.37  
Year to date precipitation 13.80 15.57  
Snow  
Snow 0.00 in 0.00 in - ()
Month to date snowfall 0.0 0.0  
Since 1 June snowfall 0.0 0.0  
Since 1 July snowfall 0.0 0.0  
Snow Depth 0.00 in    
Sea Level Pressure  
Sea Level Pressure 30.11 in    
Wind  
Wind Speed 9 mph (SE)    
Max Wind Speed 35 mph    
Max Gust Speed 43 mph    
Visibility 9 miles    
Events Rain , Thunderstorm    
T = Trace of Precipitation, MM = Missing Value Source: NWS Daily Summary

Daily Weather History Graph

Daily Weather History Graph

Search for Another Location

Airport or City:

Trip Planner

Search our weather history database for the weather conditions in past years. The results will help you decide how hot, cold, wet, or windy it might be!

Date:

Astronomy

Aug. 26, 2014 Rise Set
Actual Time 6:09 AM MDT 7:26 PM MDT
Civil Twilight 5:41 AM MDT 7:54 PM MDT
Nautical Twilight 5:08 AM MDT 8:27 PM MDT
Astronomical Twilight 4:33 AM MDT 9:02 PM MDT
Moon 7:11 AM MDT (8/26) 7:49 PM MDT (8/26)
Length of Visible Light 14h 12m
Length of Day
13h 16m
New Moon, 1% of the Moon is Illuminated
Aug 26
New Moon
Sep 2
First Quarter
Sep 8
Full
Sep 15
Last Quarter
Sep 24
New

Hourly Weather History & Observations

Time (MDT) Temp. Heat Index Dew Point Humidity Pressure Visibility Wind Dir Wind Speed Gust Speed Precip Events Conditions
12:53 AM 61.0 °F - 59.0 °F 93% 30.08 in 10.0 mi NNE 6.9 mph - 0.05 in Rain Light Rain
1:53 AM 61.0 °F - 60.1 °F 97% 30.05 in 10.0 mi East 5.8 mph - 0.00 in   Clear
2:53 AM 62.6 °F - 60.8 °F 94% 30.15 in 10.0 mi SE 11.5 mph - N/A   Clear
3:53 AM 62.1 °F - 60.1 °F 93% 30.04 in 10.0 mi SSE 4.6 mph - N/A   Clear
4:53 AM 61.0 °F - 59.0 °F 93% 30.04 in 10.0 mi SSE 3.5 mph - N/A   Clear
5:53 AM 60.8 °F - 57.2 °F 88% 30.18 in 10.0 mi Calm Calm - N/A   Mostly Cloudy
6:53 AM 61.0 °F - 60.1 °F 97% 30.11 in 10.0 mi North 4.6 mph - N/A   Mostly Cloudy
7:53 AM 63.0 °F - 62.1 °F 97% 30.13 in 10.0 mi NNE 8.1 mph - N/A   Overcast
8:30 AM 66.9 °F - 63.0 °F 87% 30.23 in 10.0 mi NE 8.1 mph - N/A Thunderstorm Mostly Cloudy
8:51 AM 68.0 °F - 62.6 °F 83% 30.22 in 10.0 mi NE 9.2 mph - N/A   Mostly Cloudy
8:53 AM 69.8 °F - 62.6 °F 78% 30.22 in 10.0 mi NNE 11.5 mph - N/A   Mostly Cloudy
9:00 AM 69.1 °F - 62.1 °F 78% 30.22 in 10.0 mi NE 10.4 mph - N/A   Mostly Cloudy
9:28 AM 66.9 °F - 61.0 °F 81% 30.21 in 10.0 mi East 10.4 mph - N/A   Scattered Clouds
9:53 AM 68.0 °F - 61.0 °F 78% 30.11 in 10.0 mi East 8.1 mph - N/A   Scattered Clouds
10:53 AM 73.0 °F - 61.0 °F 66% 30.11 in 10.0 mi ESE 10.4 mph - N/A   Clear
11:53 AM 75.0 °F - 59.0 °F 57% 30.10 in 10.0 mi SSE 13.8 mph 23.0 mph N/A   Mostly Cloudy
12:53 PM 77.0 °F - 60.1 °F 56% 30.08 in 10.0 mi South 10.4 mph - N/A   Mostly Cloudy
1:53 PM 82.0 °F 82.4 °F 60.1 °F 47% 30.04 in 10.0 mi SE 15.0 mph 26.5 mph N/A   Scattered Clouds
2:53 PM 80.6 °F 81.5 °F 60.8 °F 51% 30.14 in 10.0 mi SE 12.7 mph 19.6 mph N/A   Clear
3:53 PM 84.0 °F 84.0 °F 60.1 °F 44% 29.99 in 10.0 mi SE 13.8 mph 20.7 mph N/A   Scattered Clouds
4:53 PM 82.9 °F 83.2 °F 60.1 °F 46% 29.98 in 10.0 mi SE 12.7 mph 20.7 mph N/A   Partly Cloudy
5:53 PM 81.0 °F 81.7 °F 61.0 °F 50% 29.99 in 10.0 mi South 9.2 mph - N/A   Scattered Clouds
6:53 PM 78.1 °F - 62.1 °F 58% 30.01 in 10.0 mi South 5.8 mph - N/A   Clear
7:53 PM 75.0 °F - 63.0 °F 66% 30.01 in 10.0 mi East 5.8 mph - N/A   Partly Cloudy
8:02 PM 73.9 °F - 64.0 °F 71% 30.12 in 10.0 mi East 4.6 mph - N/A Thunderstorm Mostly Cloudy
8:15 PM 70.0 °F - 60.1 °F 71% 30.16 in 10.0 mi WSW 27.6 mph 34.5 mph N/A Thunderstorm Thunderstorm
8:53 PM 66.9 °F - 64.0 °F 90% 30.08 in 8.0 mi SW 16.1 mph - 0.00 in Rain , Thunderstorm Thunderstorms and Rain
9:37 PM 66.0 °F - 61.0 °F 84% 30.15 in 7.0 mi WSW 11.5 mph 23.0 mph 0.10 in Rain , Thunderstorm Rain
9:53 PM 66.0 °F - 61.0 °F 84% 30.06 in 8.0 mi SSW 6.9 mph - 0.12 in Rain , Thunderstorm Rain
10:01 PM 64.9 °F - 62.1 °F 90% 30.20 in 10.0 mi South 18.4 mph 24.2 mph 0.00 in Rain , Thunderstorm Light Thunderstorms and Rain
10:06 PM 66.0 °F - 63.0 °F 90% 30.23 in 1.8 mi South 27.6 mph 43.7 mph 0.00 in Rain , Thunderstorm Light Thunderstorms and Rain
10:27 PM 64.9 °F - 64.9 °F 100% 30.24 in 3.0 mi SSW 12.7 mph - 0.46 in Rain , Thunderstorm Heavy Thunderstorms and Rain
10:53 PM 64.9 °F - 62.1 °F 90% 30.12 in 6.0 mi SW 11.5 mph - 0.53 in Rain Rain
11:53 PM 64.0 °F - 63.0 °F 96% 30.07 in 10.0 mi ENE 3.5 mph - 0.05 in Rain Light Rain